Miscellaneous Local Product
Issued by NWS Hastings, NE

Home | Current Version | Previous Version | Text Only | Print | Product List | Glossary Off
Versions: 1 2 3 4 5 6 7 8 9 10 11 12 13 14 15 16 17 18 19 20 21 22 23 24 25 26 27 28 29 30 31 32 33 34 35 36 37 38 39 40 41 42 43 44 45 46 47 48 49 50

818
AXUS43 KGID 231802
MISGRI

GID CWA HOURLY WEATHER ROUNDUP
NATIONAL WEATHER SERVICE HASTINGS NE
100 PM CDT SAT JUL 23 2016

NOTE: "FAIR" INDICATES FEW OR NO CLOUDS BELOW 12,000 FEET WITH NO
SIGNIFICANT WEATHER AND/OR OBSTRUCTIONS TO VISIBILITY.

...SOUTH CENTRAL NEBRASKA...

CITY           SKY/WX    TMP DP  RH WIND       PRES   REMARKS
GRAND ISLAND   SUNNY     91  68  46 SW20      29.85F HX  95
HASTINGS       MOSUNNY   84  69  60 S9        29.87S
KEARNEY        SUNNY     88  72  58 S12       29.87S HX  94
ORD            SUNNY     87  71  58 SW10      29.83F HX  93
YORK           CLOUDY    86  72  62 SW13      29.84S HX  92
AURORA         CLOUDY    86  70  57 SW14      29.85R HX  90
LEXINGTON      SUNNY     87  68  53 W9        29.88R HX  91
HOLDREGE       CLOUDY    86  70  58 SW5       29.87F HX  91
HEBRON         CLOUDY    85  71  61 S8        29.85F HX  90

...NEBRASKA PANHANDLE...

CITY           SKY/WX    TMP DP  RH WIND       PRES   REMARKS
CHADRON        SUNNY     90  53  28 NW14G23   29.93S
ALLIANCE       SUNNY     89  52  28 N15       29.98R
SCOTTSBLUFF    SUNNY     91  49  23 NW14      30.00S
SIDNEY         SUNNY     95  49  20 N10       30.03R HX  92

...WESTERN AND NORTH CENTRAL NEBRASKA...

CITY           SKY/WX    TMP DP  RH WIND       PRES   REMARKS
VALENTINE      SUNNY     92  64  39 NW13      29.81F HX  93
AINSWORTH      SUNNY     92  66  42 W16       29.81F HX  95
ONEILL         SUNNY     91  64  40 SW16      29.81S HX  93
BROKEN BOW     SUNNY     85  70  60 SW13      29.87F
IMPERIAL       SUNNY     86  67  52 W7        29.94S
NORTH PLATTE   CLOUDY    85  70  60 W12       29.89F
MCCOOK         SUNNY     87  69  54 NW9       29.89S HX  91

...EASTERN NEBRASKA...

CITY           SKY/WX    TMP DP  RH WIND       PRES   REMARKS
NORFOLK        SUNNY     88  73  61 SW8       29.81F HX  95
SO SIOUX CITY  SUNNY     89  76  65 SE9       29.79F HX 100
TEKAMAH        CLOUDY    85  75  72 S9        29.83R HX  93
COLUMBUS       CLOUDY    88  68  51 SW8       29.83S HX  91
ALBION         SUNNY     87  72  60 SW9       29.83F HX  93
OMAHA EPPLEY   CLOUDY    85  74  69 S8        29.83S HX  92
OFFUTT AFB     CLOUDY    86  74  65 S10       29.83F HX  94
MILLARD        CLOUDY    86  73  64 S9        29.83F HX  93
LINCOLN        CLOUDY    89  73  59 S15       29.82F HX  97
NEBRASKA CITY  CLOUDY    84  74  72 S12       29.85R HX  91
BEATRICE       CLOUDY    91  70  51 S15       29.85S HX  96
FALLS CITY     CLOUDY    89  75  63 S13G20    29.85F HX  99

...NORTHERN KANSAS...

CITY           SKY/WX    TMP DP  RH WIND       PRES   REMARKS
GOODLAND       SUNNY     94  61  33 NW9       29.95F HX  94
HILL CITY      SUNNY     94  63  35 SW13      29.87R HX  95
NORTON         CLEAR     93  55  27 SW9       29.86F HX  91
SMITH CENTER   SUNNY     97  63  32 S14G23    29.85S HX  98
BELOIT         SUNNY     90  72  55 S8        29.84R HX  96
HAYS           CLOUDY    99  64  32 S18G25    29.85F HX 101
RUSSELL        CLOUDY    95  63  34 S22       29.85F HX  96
CONCORDIA      PTSUNNY   89  70  53 S15       29.86S HX  94
SALINA         CLOUDY    99  67  35 S20G26    29.85F HX 103
TOPEKA         CLOUDY    92  71  50 S15       29.88F HX  98



USA.gov is the U.S. government's official web portal to all federal, state and local government web resources and services.